Shungnak AP, Shungnak, AK, AK

7:35 PM AKST on November 13, 2019 (GMT -0900)
Shungnak AP, Shungnak, AK

Weather History for PAGH - September, 2019

Change the Weather History Date:

Wednesday, September 25, 2019

  Actual Average (WUND) Record (WUND)
Temperature  
Mean Temperature 34 °F -  
Max Temperature 39 °F - - (-1)
Min Temperature 28 °F - - (-1)
Degree Days  
Heating Degree Days 32    
Moisture  
Dew Point 31 °F    
Average Humidity 92    
Maximum Humidity 100    
Minimum Humidity 79    
Precipitation  
Precipitation 0.00 in - - ()
Sea Level Pressure  
Sea Level Pressure 29.85 in    
Wind  
Wind Speed 10 mph (ESE)    
Max Wind Speed 17 mph    
Max Gust Speed 24 mph    
Visibility 9 miles    
Events Rain , Snow    
Averages and records for this station are not official NWS values.
T = Trace of Precipitation, MM = Missing Value Source: NWS Daily Summary

Daily Weather History Graph

Daily Weather History Graph

Search for Another Location

Airport or City:

Astronomy

Sep. 25, 2019 Rise Set
Actual Time 8:20 AM AKDT 8:18 PM AKDT
Civil Twilight 7:27 AM AKDT 9:11 PM AKDT
Nautical Twilight 6:22 AM AKDT 10:15 PM AKDT
Astronomical Twilight 5:05 AM AKDT 11:31 PM AKDT
Moon 1:53 AM AKDT (9/25) 8:55 PM AKDT (9/25)
Length of Visible Light 13h 43m
Length of Day
11h 57m
Waning Crescent, 13% of the Moon is Illuminated
Sep 25
Waning Crescent
Sep 28
New
Oct 5
First Quarter
Oct 13
Full
Oct 21
Last Quarter

Hourly Weather History & Observations

Time (AKDT) Temp. Windchill Dew Point Humidity Pressure Visibility Wind Dir Wind Speed Gust Speed Precip Events Conditions
12:00 AM 30.2 °F 22.6 °F 30.2 °F 100% 29.81 in 3.0 mi SE 8.1 mph - N/A   Overcast
12:16 AM 30.2 °F 22.6 °F 30.2 °F 100% 29.81 in 10.0 mi SE 8.1 mph - N/A   Scattered Clouds
12:56 AM 30.0 °F 22.4 °F 28.9 °F 96% 29.83 in 9.0 mi ESE 8.1 mph - N/A   Mostly Cloudy
1:06 AM 28.4 °F 20.4 °F 28.4 °F 100% 29.81 in 10.0 mi SE 8.1 mph - N/A   Scattered Clouds
1:56 AM 30.0 °F 20.5 °F 30.0 °F 100% 29.82 in 9.0 mi East 11.5 mph - N/A   Mostly Cloudy
2:15 AM 30.2 °F 21.3 °F 30.2 °F 100% 29.79 in 10.0 mi ESE 10.4 mph - N/A   Scattered Clouds
2:56 AM 30.9 °F 21.7 °F 30.0 °F 96% 29.81 in 10.0 mi ESE 11.5 mph - N/A   Clear
3:56 AM 30.0 °F 20.5 °F 28.9 °F 96% 29.80 in 10.0 mi East 11.5 mph - N/A   Partly Cloudy
4:56 AM 30.0 °F 20.5 °F 30.0 °F 100% 29.78 in 10.0 mi East 11.5 mph - N/A   Overcast
5:56 AM 30.9 °F 20.7 °F 30.0 °F 96% 29.77 in 10.0 mi ESE 13.8 mph - N/A   Overcast
6:15 AM 30.2 °F 19.8 °F 30.2 °F 100% 29.75 in 10.0 mi ESE 13.8 mph - N/A   Overcast
6:56 AM 32.0 °F 21.6 °F 30.9 °F 96% 29.77 in 5.0 mi ESE 15.0 mph - N/A Snow Light Snow
7:42 AM 32.0 °F 22.5 °F 30.2 °F 93% 29.74 in 5.0 mi East 12.7 mph - N/A Snow Light Snow
7:56 AM 32.0 °F 21.6 °F 30.9 °F 96% 29.76 in 5.0 mi East 15.0 mph 20.7 mph N/A Snow Light Snow
8:56 AM 33.1 °F 22.6 °F 30.9 °F 92% 29.75 in 9.0 mi East 16.1 mph 23.0 mph N/A Snow Light Snow
9:56 AM 34.0 °F 24.2 °F 30.9 °F 89% 29.76 in 10.0 mi East 15.0 mph 20.7 mph N/A   Overcast
10:56 AM 34.0 °F 23.4 °F 32.0 °F 92% 29.78 in 9.0 mi East 17.3 mph - N/A Snow Light Snow
11:56 AM 35.1 °F 25.9 °F 32.0 °F 89% 29.80 in 10.0 mi East 13.8 mph - N/A Rain Light Rain
12:56 PM 35.1 °F 25.2 °F 32.0 °F 89% 29.83 in 10.0 mi East 16.1 mph 21.9 mph N/A Rain Light Rain
1:56 PM 35.1 °F 25.2 °F 33.1 °F 92% 29.85 in 10.0 mi East 16.1 mph 24.2 mph N/A Rain Light Rain
2:56 PM 36.0 °F 28.0 °F 34.0 °F 93% 29.86 in 10.0 mi East 11.5 mph - N/A Rain Light Rain
3:56 PM 39.0 °F 31.4 °F 33.1 °F 79% 29.88 in 10.0 mi East 12.7 mph - N/A   Overcast
4:56 PM 39.9 °F 33.4 °F 34.0 °F 79% 29.90 in 10.0 mi ESE 10.4 mph - N/A   Overcast
5:56 PM 39.9 °F 37.8 °F 34.0 °F 79% 29.92 in 10.0 mi SE 3.5 mph - N/A   Overcast
6:56 PM 39.0 °F - 34.0 °F 82% 29.94 in 10.0 mi Calm Calm - N/A   Overcast
7:56 PM 39.0 °F - 33.1 °F 79% 29.96 in 10.0 mi Calm Calm - N/A   Overcast
8:56 PM 37.9 °F - 33.1 °F 83% 29.98 in 10.0 mi Calm Calm - N/A   Overcast
9:56 PM 37.0 °F 33.3 °F 33.1 °F 86% 30.01 in 10.0 mi WSW 4.6 mph - N/A   Overcast
10:56 PM 34.0 °F 28.8 °F 30.9 °F 89% 30.04 in 10.0 mi West 5.8 mph - N/A   Overcast
11:56 PM 33.1 °F 27.7 °F 30.9 °F 92% 30.06 in 10.0 mi SW 5.8 mph - N/A   Mostly Cloudy